Time,TemperatureF,DewpointF,PressureIn,WindDirection,WindDirectionDegrees,WindSpeedMPH,WindSpeedGustMPH,Humidity,HourlyPrecipIn,Conditions,Clouds,dailyrainin,SoftwareType,DateUTC
2013-07-21 00:00:00,74.7,73.2,29.82,SSW,202,1.0,2.0,95,0.00,,---,0.00,VWS V14.01,2013-07-21 04:00:00,
2013-07-21 00:01:00,74.7,73.2,29.82,SSW,201,1.0,2.0,95,0.00,,---,0.00,VWS V14.01,2013-07-21 04:01:00,
2013-07-21 00:06:00,74.7,73.2,29.83,SSW,200,0.0,2.0,95,0.00,,---,0.00,VWS V14.01,2013-07-21 04:06:00,
2013-07-21 00:11:00,74.6,73.1,29.82,SSW,201,0.0,0.0,95,0.00,,---,0.00,VWS V14.01,2013-07-21 04:11:00,
2013-07-21 00:16:00,74.6,73.4,29.83,SSW,200,0.0,0.0,96,0.00,,---,0.00,VWS V14.01,2013-07-21 04:16:00,
2013-07-21 00:21:00,74.6,73.4,29.83,SSW,201,0.0,2.0,96,0.00,,---,0.00,VWS V14.01,2013-07-21 04:21:00,
2013-07-21 00:26:00,74.6,73.4,29.83,SSW,201,0.0,1.0,96,0.00,,---,0.00,VWS V14.01,2013-07-21 04:26:00,
2013-07-21 00:31:00,74.5,73.3,29.83,SSW,200,0.0,2.0,96,0.00,,---,0.00,VWS V14.01,2013-07-21 04:31:00,
2013-07-21 00:36:00,74.4,73.2,29.83,SSW,201,1.0,1.0,96,0.00,,---,0.00,VWS V14.01,2013-07-21 04:36:00,
2013-07-21 00:41:00,74.5,73.3,29.83,SSW,203,2.0,3.0,96,0.00,,---,0.00,VWS V14.01,2013-07-21 04:41:00,
2013-07-21 00:46:00,74.5,73.3,29.83,SSW,204,0.0,3.0,96,0.00,,---,0.00,VWS V14.01,2013-07-21 04:46:00,
2013-07-21 00:51:00,74.6,73.7,29.83,SSW,204,1.0,4.0,97,0.00,,---,0.00,VWS V14.01,2013-07-21 04:51:00,
2013-07-21 00:56:00,74.6,73.4,29.83,SSW,204,1.0,4.0,96,0.00,,---,0.00,VWS V14.01,2013-07-21 04:56:00,
2013-07-21 01:01:00,74.6,73.4,29.83,SSW,204,2.0,3.0,96,0.00,,---,0.00,VWS V14.01,2013-07-21 05:01:00,
2013-07-21 01:06:00,74.6,73.4,29.84,SSW,205,1.0,3.0,96,0.00,,---,0.00,VWS V14.01,2013-07-21 05:06:00,
2013-07-21 01:11:00,74.6,73.4,29.84,SSW,204,3.0,5.0,96,0.00,,---,0.00,VWS V14.01,2013-07-21 05:11:00,
2013-07-21 01:16:00,74.7,73.5,29.83,SSW,204,2.0,3.0,96,0.00,,---,0.00,VWS V14.01,2013-07-21 05:16:00,
2013-07-21 01:21:00,74.7,73.5,29.83,SSW,204,2.0,4.0,96,0.00,,---,0.00,VWS V14.01,2013-07-21 05:21:00,
2013-07-21 01:26:00,74.8,73.6,29.84,SSW,204,3.0,4.0,96,0.00,,---,0.00,VWS V14.01,2013-07-21 05:26:00,
2013-07-21 01:31:00,74.7,73.5,29.84,SSW,204,3.0,4.0,96,0.00,,---,0.00,VWS V14.01,2013-07-21 05:31:00,
2013-07-21 01:36:00,74.7,73.2,29.84,SSW,204,0.0,3.0,95,0.00,,---,0.00,VWS V14.01,2013-07-21 05:36:00,
2013-07-21 01:41:00,74.8,73.3,29.84,SSW,204,3.0,4.0,95,0.00,,---,0.00,VWS V14.01,2013-07-21 05:41:00,
2013-07-21 01:46:00,74.8,73.3,29.84,SSW,204,0.0,2.0,95,0.00,,---,0.00,VWS V14.01,2013-07-21 05:46:00,
2013-07-21 01:51:00,74.8,73.0,29.84,SSW,205,0.0,2.0,94,0.00,,---,0.00,VWS V14.01,2013-07-21 05:51:00,
2013-07-21 01:56:00,74.8,73.0,29.84,SSW,204,1.0,2.0,94,0.00,,---,0.00,VWS V14.01,2013-07-21 05:56:00,
2013-07-21 02:01:00,74.8,73.0,29.84,SSW,204,0.0,1.0,94,0.00,,---,0.00,VWS V14.01,2013-07-21 06:01:00,
2013-07-21 02:06:00,74.9,73.1,29.85,SSW,204,2.0,2.0,94,0.00,,---,0.00,VWS V14.01,2013-07-21 06:06:00,
2013-07-21 02:11:00,74.9,73.4,29.85,SSW,204,0.0,3.0,95,0.00,,---,0.00,VWS V14.01,2013-07-21 06:11:00,
2013-07-21 02:16:00,75.0,73.5,29.85,SSW,204,2.0,4.0,95,0.00,,---,0.00,VWS V14.01,2013-07-21 06:16:00,
2013-07-21 02:21:00,74.9,73.1,29.85,SSW,204,1.0,3.0,94,0.00,,---,0.00,VWS V14.01,2013-07-21 06:21:00,
2013-07-21 02:26:00,74.9,73.1,29.85,SSW,205,0.0,3.0,94,0.00,,---,0.00,VWS V14.01,2013-07-21 06:26:00,
2013-07-21 02:31:00,74.9,73.1,29.85,SSW,205,0.0,3.0,94,0.00,,---,0.00,VWS V14.01,2013-07-21 06:31:00,
2013-07-21 02:36:00,74.9,73.1,29.85,SSW,204,0.0,2.0,94,0.00,,---,0.00,VWS V14.01,2013-07-21 06:36:00,
2013-07-21 02:41:00,74.9,72.7,29.85,WNW,301,2.0,7.0,93,0.00,,---,0.00,VWS V14.01,2013-07-21 06:41:00,
2013-07-21 02:46:00,74.9,72.4,29.85,WNW,299,2.0,4.0,92,0.00,,---,0.00,VWS V14.01,2013-07-21 06:46:00,
2013-07-21 02:51:00,74.9,71.8,29.85,WNW,299,3.0,3.0,90,0.00,,---,0.00,VWS V14.01,2013-07-21 06:51:00,
2013-07-21 02:56:00,74.9,71.4,29.85,WNW,299,0.0,3.0,89,0.00,,---,0.00,VWS V14.01,2013-07-21 06:56:00,
2013-07-21 03:01:00,74.9,70.8,29.85,West,274,2.0,3.0,87,0.00,,---,0.00,VWS V14.01,2013-07-21 07:01:00,
2013-07-21 03:06:00,74.9,70.8,29.85,West,278,0.0,4.0,87,0.00,,---,0.00,VWS V14.01,2013-07-21 07:06:00,
2013-07-21 03:11:00,74.9,69.7,29.85,WNW,288,2.0,4.0,84,0.00,,---,0.00,VWS V14.01,2013-07-21 07:11:00,
2013-07-21 03:16:00,75.0,69.1,29.85,WNW,288,2.0,5.0,82,0.00,,---,0.00,VWS V14.01,2013-07-21 07:16:00,
2013-07-21 03:21:00,75.0,69.5,29.85,WNW,289,0.0,3.0,83,0.00,,---,0.00,VWS V14.01,2013-07-21 07:21:00,
2013-07-21 03:26:00,75.1,69.2,29.85,WNW,292,1.0,5.0,82,0.00,,---,0.00,VWS V14.01,2013-07-21 07:26:00,
2013-07-21 03:32:00,74.9,69.0,29.85,WNW,297,0.0,4.0,82,0.00,,---,0.00,VWS V14.01,2013-07-21 07:32:00,
2013-07-21 03:37:00,74.9,69.0,29.85,WNW,296,4.0,4.0,82,0.00,,---,0.00,VWS V14.01,2013-07-21 07:37:00,
2013-07-21 03:42:00,74.8,68.9,29.85,WNW,302,3.0,5.0,82,0.00,,---,0.00,VWS V14.01,2013-07-21 07:42:00,
2013-07-21 03:47:00,74.8,68.9,29.85,NW,305,1.0,5.0,82,0.00,,---,0.00,VWS V14.01,2013-07-21 07:47:00,
2013-07-21 03:52:00,74.8,69.3,29.86,WNW,287,2.0,6.0,83,0.00,,---,0.00,VWS V14.01,2013-07-21 07:52:00,
2013-07-21 03:57:00,74.7,69.2,29.86,WNW,288,0.0,2.0,83,0.00,,---,0.00,VWS V14.01,2013-07-21 07:57:00,
2013-07-21 04:02:00,74.6,69.4,29.86,WNW,295,0.0,5.0,84,0.00,,---,0.00,VWS V14.01,2013-07-21 08:02:00,
2013-07-21 04:07:00,74.5,69.3,29.86,WNW,295,2.0,3.0,84,0.00,,---,0.00,VWS V14.01,2013-07-21 08:07:00,
2013-07-21 04:12:00,74.4,69.3,29.86,WNW,295,1.0,5.0,84,0.00,,---,0.00,VWS V14.01,2013-07-21 08:12:00,
2013-07-21 04:17:00,74.3,69.5,29.86,WNW,295,1.0,2.0,85,0.00,,---,0.00,VWS V14.01,2013-07-21 08:17:00,
2013-07-21 04:22:00,74.2,69.1,29.87,WNW,295,2.0,6.0,84,0.00,,---,0.00,VWS V14.01,2013-07-21 08:22:00,
2013-07-21 04:27:00,74.1,69.0,29.86,NW,304,3.0,4.0,84,0.00,,---,0.00,VWS V14.01,2013-07-21 08:27:00,
2013-07-21 04:32:00,74.1,69.0,29.87,NW,304,4.0,6.0,84,0.00,,---,0.00,VWS V14.01,2013-07-21 08:32:00,
2013-07-21 04:37:00,74.0,68.9,29.87,WNW,303,4.0,4.0,84,0.00,,---,0.00,VWS V14.01,2013-07-21 08:37:00,
2013-07-21 04:42:00,74.0,68.5,29.87,NW,305,4.0,7.0,83,0.00,,---,0.00,VWS V14.01,2013-07-21 08:42:00,
2013-07-21 04:47:00,74.0,68.9,29.87,NW,305,4.0,4.0,84,0.00,,---,0.00,VWS V14.01,2013-07-21 08:47:00,
2013-07-21 04:52:00,74.0,68.9,29.87,NW,305,2.0,3.0,84,0.00,,---,0.00,VWS V14.01,2013-07-21 08:52:00,
2013-07-21 04:57:00,73.9,68.8,29.88,WNW,301,0.0,5.0,84,0.00,,---,0.00,VWS V14.01,2013-07-21 08:57:00,
2013-07-21 05:02:00,73.8,69.0,29.90,WNW,301,2.0,5.0,85,0.00,,---,0.00,VWS V14.01,2013-07-21 09:02:00,
2013-07-21 05:07:00,73.6,69.2,29.89,WNW,301,0.0,1.0,86,0.00,,---,0.00,VWS V14.01,2013-07-21 09:07:00,
2013-07-21 05:12:00,73.4,69.0,29.89,WNW,301,0.0,3.0,86,0.00,,---,0.00,VWS V14.01,2013-07-21 09:12:00,
2013-07-21 05:17:00,73.1,69.0,29.89,WNW,300,0.0,1.0,87,0.00,,---,0.00,VWS V14.01,2013-07-21 09:17:00,
2013-07-21 05:22:00,72.9,69.1,29.89,WNW,301,1.0,1.0,88,0.00,,---,0.00,VWS V14.01,2013-07-21 09:22:00,
2013-07-21 05:27:00,72.5,69.1,29.89,WNW,301,3.0,4.0,89,0.00,,---,0.00,VWS V14.01,2013-07-21 09:27:00,
2013-07-21 05:32:00,72.0,68.6,29.89,WNW,300,2.0,6.0,89,0.00,,---,0.00,VWS V14.01,2013-07-21 09:32:00,
2013-07-21 05:37:00,71.9,68.2,29.89,WNW,300,1.0,3.0,88,0.00,,---,0.00,VWS V14.01,2013-07-21 09:37:00,
2013-07-21 05:42:00,72.0,68.3,29.89,WNW,301,2.0,3.0,88,0.00,,---,0.00,VWS V14.01,2013-07-21 09:42:00,
2013-07-21 05:47:00,72.0,68.3,29.89,WNW,300,0.0,1.0,88,0.00,,---,0.00,VWS V14.01,2013-07-21 09:47:00,
2013-07-21 05:52:00,72.0,68.6,29.89,WNW,300,0.0,0.0,89,0.00,,---,0.00,VWS V14.01,2013-07-21 09:52:00,
2013-07-21 05:57:00,72.0,68.6,29.90,WNW,301,2.0,4.0,89,0.00,,---,0.00,VWS V14.01,2013-07-21 09:57:00,
2013-07-21 06:02:00,71.9,68.8,29.90,WNW,301,0.0,3.0,90,0.01,,---,0.01,VWS V14.01,2013-07-21 10:02:00,
2013-07-21 06:07:00,71.8,69.0,29.90,WNW,301,0.0,0.0,91,0.02,,---,0.02,VWS V14.01,2013-07-21 10:07:00,
2013-07-21 06:12:00,71.5,69.1,29.90,WNW,300,1.0,1.0,92,0.02,,---,0.02,VWS V14.01,2013-07-21 10:12:00,
2013-07-21 06:17:00,71.3,68.9,29.90,WNW,301,0.0,1.0,92,0.02,,---,0.02,VWS V14.01,2013-07-21 10:17:00,
2013-07-21 06:22:00,71.1,69.0,29.91,WNW,300,0.0,0.0,93,0.02,,---,0.02,VWS V14.01,2013-07-21 10:22:00,
2013-07-21 06:27:00,70.9,69.1,29.91,WNW,301,0.0,0.0,94,0.02,,---,0.02,VWS V14.01,2013-07-21 10:27:00,
2013-07-21 06:32:00,70.7,68.9,29.91,WNW,301,0.0,0.0,94,0.02,,---,0.02,VWS V14.01,2013-07-21 10:32:00,
2013-07-21 06:37:00,70.6,68.8,29.91,WNW,301,0.0,0.0,94,0.02,,---,0.02,VWS V14.01,2013-07-21 10:37:00,
2013-07-21 06:42:00,70.5,68.7,29.91,WNW,300,0.0,0.0,94,0.02,,---,0.02,VWS V14.01,2013-07-21 10:42:00,
2013-07-21 06:47:00,70.4,68.9,29.91,WNW,300,0.0,0.0,95,0.02,,---,0.02,VWS V14.01,2013-07-21 10:47:00,
2013-07-21 06:52:00,70.5,69.0,29.91,WNW,300,0.0,1.0,95,0.02,,---,0.02,VWS V14.01,2013-07-21 10:52:00,
2013-07-21 06:57:00,70.7,69.5,29.91,WNW,299,0.0,0.0,96,0.02,,---,0.02,VWS V14.01,2013-07-21 10:57:00,
2013-07-21 07:02:00,70.8,69.6,29.92,WNW,300,0.0,0.0,96,0.01,,---,0.02,VWS V14.01,2013-07-21 11:02:00,
2013-07-21 07:07:00,71.0,69.8,29.92,WNW,300,0.0,0.0,96,0.00,,---,0.02,VWS V14.01,2013-07-21 11:07:00,
2013-07-21 07:12:00,71.0,69.8,29.92,WNW,300,0.0,0.0,96,0.00,,---,0.02,VWS V14.01,2013-07-21 11:12:00,
2013-07-21 07:17:00,71.0,69.8,29.92,WNW,299,1.0,1.0,96,0.00,,---,0.02,VWS V14.01,2013-07-21 11:17:00,
2013-07-21 07:22:00,70.8,69.3,29.92,WNW,300,0.0,2.0,95,0.00,,---,0.02,VWS V14.01,2013-07-21 11:22:00,
2013-07-21 07:27:00,70.9,69.4,29.92,WNW,300,0.0,0.0,95,0.00,,---,0.02,VWS V14.01,2013-07-21 11:27:00,
2013-07-21 07:32:00,71.0,69.8,29.93,WNW,299,1.0,2.0,96,0.00,,---,0.02,VWS V14.01,2013-07-21 11:32:00,
2013-07-21 07:37:00,71.0,69.5,29.93,WNW,300,0.0,2.0,95,0.00,,---,0.02,VWS V14.01,2013-07-21 11:37:00,
2013-07-21 07:42:00,71.2,69.4,29.93,WNW,299,0.0,1.0,94,0.00,,---,0.02,VWS V14.01,2013-07-21 11:42:00,
2013-07-21 07:47:00,71.3,69.2,29.93,WNW,299,0.0,1.0,93,0.00,,---,0.02,VWS V14.01,2013-07-21 11:47:00,
2013-07-21 07:52:00,71.3,69.2,29.93,WNW,300,0.0,0.0,93,0.00,,---,0.02,VWS V14.01,2013-07-21 11:52:00,
2013-07-21 07:57:00,71.6,69.8,29.93,WNW,300,0.0,3.0,94,0.00,,---,0.02,VWS V14.01,2013-07-21 11:57:00,
2013-07-21 08:02:00,71.7,69.3,29.93,WNW,300,1.0,4.0,92,0.00,,---,0.02,VWS V14.01,2013-07-21 12:02:00,
2013-07-21 08:07:00,71.9,69.1,29.93,WNW,300,1.0,3.0,91,0.00,,---,0.02,VWS V14.01,2013-07-21 12:07:00,
2013-07-21 08:12:00,72.2,69.1,29.93,WNW,300,1.0,4.0,90,0.00,,---,0.02,VWS V14.01,2013-07-21 12:12:00,
2013-07-21 08:17:00,72.5,68.8,29.93,WNW,300,0.0,3.0,88,0.00,,---,0.02,VWS V14.01,2013-07-21 12:17:00,
2013-07-21 08:22:00,73.0,68.6,29.93,WNW,300,1.0,3.0,86,0.00,,---,0.02,VWS V14.01,2013-07-21 12:22:00,
2013-07-21 08:27:00,73.3,68.9,29.94,WNW,300,3.0,4.0,86,0.00,,---,0.02,VWS V14.01,2013-07-21 12:27:00,
2013-07-21 08:32:00,73.3,68.9,29.93,WNW,302,0.0,3.0,86,0.00,,---,0.02,VWS V14.01,2013-07-21 12:32:00,
2013-07-21 08:37:00,73.3,69.2,29.94,WNW,302,2.0,4.0,87,0.00,,---,0.02,VWS V14.01,2013-07-21 12:37:00,
2013-07-21 08:42:00,73.3,68.5,29.94,WNW,302,5.0,5.0,85,0.00,,---,0.02,VWS V14.01,2013-07-21 12:42:00,
2013-07-21 08:47:00,73.4,69.0,29.94,NW,307,3.0,3.0,86,0.00,,---,0.02,VWS V14.01,2013-07-21 12:47:00,
2013-07-21 08:53:00,73.6,69.2,29.94,NW,307,2.0,4.0,86,0.00,,---,0.02,VWS V14.01,2013-07-21 12:53:00,
2013-07-21 08:58:00,73.6,68.1,29.94,NW,308,3.0,5.0,83,0.00,,---,0.02,VWS V14.01,2013-07-21 12:58:00,
2013-07-21 09:03:00,73.5,68.7,29.95,NW,310,4.0,6.0,85,0.00,,---,0.02,VWS V14.01,2013-07-21 13:03:00,
2013-07-21 09:08:00,73.5,68.4,29.95,NNW,334,2.0,7.0,84,0.00,,---,0.02,VWS V14.01,2013-07-21 13:08:00,
2013-07-21 09:13:00,73.7,68.9,29.95,NNW,334,1.0,4.0,85,0.00,,---,0.02,VWS V14.01,2013-07-21 13:13:00,
2013-07-21 09:18:00,73.8,69.3,29.95,NNW,334,5.0,5.0,86,0.00,,---,0.02,VWS V14.01,2013-07-21 13:18:00,
2013-07-21 09:23:00,73.8,69.0,29.96,NNW,335,1.0,6.0,85,0.00,,---,0.02,VWS V14.01,2013-07-21 13:23:00,
2013-07-21 09:28:00,73.9,69.4,29.96,NNW,334,4.0,4.0,86,0.00,,---,0.02,VWS V14.01,2013-07-21 13:28:00,
2013-07-21 09:33:00,73.9,69.8,29.95,NNW,334,0.0,3.0,87,0.00,,---,0.02,VWS V14.01,2013-07-21 13:33:00,
2013-07-21 09:38:00,73.9,69.8,29.95,NNW,334,0.0,2.0,87,0.00,,---,0.02,VWS V14.01,2013-07-21 13:38:00,
2013-07-21 09:43:00,73.8,69.3,29.95,NNW,334,4.0,4.0,86,0.00,,---,0.02,VWS V14.01,2013-07-21 13:43:00,
2013-07-21 09:48:00,73.5,69.4,29.95,NNW,334,2.0,3.0,87,0.00,,---,0.02,VWS V14.01,2013-07-21 13:48:00,
2013-07-21 09:53:00,73.3,69.5,29.95,NNW,334,1.0,2.0,88,0.00,,---,0.02,VWS V14.01,2013-07-21 13:53:00,
2013-07-21 09:58:00,73.2,69.4,29.95,NNW,334,2.0,4.0,88,0.00,,---,0.02,VWS V14.01,2013-07-21 13:58:00,
2013-07-21 10:03:00,73.1,69.3,29.95,NNW,334,0.0,3.0,88,0.00,,---,0.02,VWS V14.01,2013-07-21 14:03:00,
2013-07-21 10:08:00,72.9,68.5,29.95,NNW,334,0.0,4.0,86,0.00,,---,0.02,VWS V14.01,2013-07-21 14:08:00,
2013-07-21 10:13:00,72.9,69.1,29.96,NNW,334,2.0,3.0,88,0.00,,---,0.02,VWS V14.01,2013-07-21 14:13:00,
2013-07-21 10:18:00,73.0,69.2,29.95,NNW,334,0.0,3.0,88,0.00,,---,0.02,VWS V14.01,2013-07-21 14:18:00,
2013-07-21 10:23:00,73.2,69.8,29.96,NNW,334,3.0,3.0,89,0.00,,---,0.02,VWS V14.01,2013-07-21 14:23:00,
2013-07-21 10:28:00,73.3,69.5,29.95,NNW,334,0.0,3.0,88,0.00,,---,0.02,VWS V14.01,2013-07-21 14:28:00,
2013-07-21 10:33:00,73.8,70.0,29.95,NNW,334,1.0,3.0,88,0.00,,---,0.02,VWS V14.01,2013-07-21 14:33:00,
2013-07-21 10:38:00,74.2,69.4,29.95,ENE,67,6.0,6.0,85,0.00,,---,0.02,VWS V14.01,2013-07-21 14:38:00,
2013-07-21 10:43:00,74.2,69.4,29.96,ENE,66,1.0,4.0,85,0.00,,---,0.02,VWS V14.01,2013-07-21 14:43:00,
2013-07-21 10:48:00,74.2,69.4,29.97,ENE,66,0.0,2.0,85,0.00,,---,0.02,VWS V14.01,2013-07-21 14:48:00,
2013-07-21 10:53:00,74.2,69.4,29.97,ENE,67,0.0,1.0,85,0.00,,---,0.02,VWS V14.01,2013-07-21 14:53:00,
2013-07-21 10:58:00,74.2,70.1,29.98,ENE,67,0.0,0.0,87,0.00,,---,0.02,VWS V14.01,2013-07-21 14:58:00,
2013-07-21 11:03:00,74.2,70.1,29.97,ENE,66,0.0,1.0,87,0.00,,---,0.02,VWS V14.01,2013-07-21 15:03:00,
2013-07-21 11:08:00,74.1,70.3,29.98,ENE,67,0.0,2.0,88,0.01,,---,0.03,VWS V14.01,2013-07-21 15:08:00,
2013-07-21 11:13:00,73.9,70.1,29.97,ENE,67,1.0,2.0,88,0.01,,---,0.03,VWS V14.01,2013-07-21 15:13:00,
2013-07-21 11:18:00,73.8,70.0,29.97,ENE,66,0.0,1.0,88,0.01,,---,0.03,VWS V14.01,2013-07-21 15:18:00,
2013-07-21 11:23:00,74.0,70.6,29.97,SE,125,2.0,4.0,89,0.01,,---,0.03,VWS V14.01,2013-07-21 15:23:00,
2013-07-21 11:28:00,74.0,70.2,29.97,SE,125,0.0,4.0,88,0.01,,---,0.03,VWS V14.01,2013-07-21 15:28:00,
2013-07-21 11:33:00,74.1,70.7,29.96,SE,125,1.0,4.0,89,0.01,,---,0.03,VWS V14.01,2013-07-21 15:33:00,
2013-07-21 11:38:00,74.3,70.5,29.97,South,172,1.0,5.0,88,0.01,,---,0.03,VWS V14.01,2013-07-21 15:38:00,
2013-07-21 11:43:00,74.4,70.6,29.97,SSW,212,5.0,6.0,88,0.01,,---,0.03,VWS V14.01,2013-07-21 15:43:00,
2013-07-21 11:48:00,74.5,70.0,29.97,SSW,212,2.0,5.0,86,0.01,,---,0.03,VWS V14.01,2013-07-21 15:48:00,
2013-07-21 11:53:00,74.7,70.2,29.97,SSW,213,1.0,4.0,86,0.01,,---,0.03,VWS V14.01,2013-07-21 15:53:00,
2013-07-21 11:58:00,74.7,69.9,29.97,SSW,213,3.0,7.0,85,0.01,,---,0.03,VWS V14.01,2013-07-21 15:58:00,
2013-07-21 12:03:00,74.7,70.6,29.97,SW,214,4.0,9.0,87,0.01,,---,0.03,VWS V14.01,2013-07-21 16:03:00,
2013-07-21 12:08:00,74.7,70.9,29.97,SW,218,4.0,10.0,88,0.00,,---,0.03,VWS V14.01,2013-07-21 16:08:00,
2013-07-21 12:13:00,74.5,70.7,29.97,SW,215,4.0,8.0,88,0.00,,---,0.03,VWS V14.01,2013-07-21 16:13:00,
2013-07-21 12:18:00,74.3,70.8,29.98,SW,216,3.0,9.0,89,0.00,,---,0.03,VWS V14.01,2013-07-21 16:18:00,
2013-07-21 12:23:00,74.2,70.8,29.98,SW,216,2.0,3.0,89,0.00,,---,0.03,VWS V14.01,2013-07-21 16:23:00,
2013-07-21 12:28:00,74.3,70.8,29.98,SW,218,1.0,5.0,89,0.00,,---,0.03,VWS V14.01,2013-07-21 16:28:00,
2013-07-21 12:33:00,74.8,71.0,29.97,SSW,209,1.0,6.0,88,0.00,,---,0.03,VWS V14.01,2013-07-21 16:33:00,
2013-07-21 12:38:00,74.9,70.8,29.97,SSW,208,6.0,6.0,87,0.00,,---,0.03,VWS V14.01,2013-07-21 16:38:00,
2013-07-21 12:43:00,75.0,70.5,29.97,SSW,202,1.0,3.0,86,0.00,,---,0.03,VWS V14.01,2013-07-21 16:43:00,
2013-07-21 12:48:00,75.2,70.4,29.97,SSW,203,3.0,7.0,85,0.00,,---,0.03,VWS V14.01,2013-07-21 16:48:00,
2013-07-21 12:53:00,75.4,70.2,29.97,SSW,200,1.0,3.0,84,0.00,,---,0.03,VWS V14.01,2013-07-21 16:53:00,
2013-07-21 12:58:00,75.8,71.0,29.97,SSW,202,5.0,6.0,85,0.00,,---,0.03,VWS V14.01,2013-07-21 16:58:00,
2013-07-21 13:03:00,76.4,71.9,29.97,SSW,202,2.0,6.0,86,0.00,,---,0.03,VWS V14.01,2013-07-21 17:03:00,
2013-07-21 13:08:00,76.9,71.3,29.97,SSW,202,3.0,5.0,83,0.00,,---,0.03,VWS V14.01,2013-07-21 17:08:00,
2013-07-21 13:13:00,77.3,71.0,29.97,SSW,204,1.0,9.0,81,0.00,,---,0.03,VWS V14.01,2013-07-21 17:13:00,
2013-07-21 13:18:00,77.6,70.6,29.97,SSW,204,1.0,4.0,79,0.00,,---,0.03,VWS V14.01,2013-07-21 17:18:00,
2013-07-21 13:23:00,77.9,70.9,29.97,SSW,208,1.0,9.0,79,0.00,,---,0.03,VWS V14.01,2013-07-21 17:23:00,
2013-07-21 13:28:00,77.9,71.2,29.98,SSW,206,0.0,4.0,80,0.00,,---,0.03,VWS V14.01,2013-07-21 17:28:00,
2013-07-21 13:33:00,78.2,71.2,29.97,SSW,208,6.0,6.0,79,0.00,,---,0.03,VWS V14.01,2013-07-21 17:33:00,
2013-07-21 13:38:00,78.4,71.3,29.97,SSW,210,1.0,8.0,79,0.00,,---,0.03,VWS V14.01,2013-07-21 17:38:00,
2013-07-21 13:43:00,78.2,70.8,29.97,SSW,207,1.0,5.0,78,0.00,,---,0.03,VWS V14.01,2013-07-21 17:43:00,
2013-07-21 13:48:00,78.2,70.0,29.97,SSW,207,2.0,7.0,76,0.00,,---,0.03,VWS V14.01,2013-07-21 17:48:00,
2013-07-21 13:53:00,78.0,71.0,29.97,South,185,3.0,4.0,79,0.00,,---,0.03,VWS V14.01,2013-07-21 17:53:00,
2013-07-21 13:58:00,77.8,70.0,29.97,South,184,1.0,6.0,77,0.00,,---,0.03,VWS V14.01,2013-07-21 17:58:00,
2013-07-21 14:03:00,77.8,69.6,29.97,South,185,1.0,3.0,76,0.00,,---,0.03,VWS V14.01,2013-07-21 18:03:00,
2013-07-21 14:08:00,77.9,70.1,29.97,South,188,1.0,6.0,77,0.00,,---,0.03,VWS V14.01,2013-07-21 18:08:00,
2013-07-21 14:13:00,77.9,68.9,29.97,South,189,0.0,5.0,74,0.00,,---,0.03,VWS V14.01,2013-07-21 18:13:00,
2013-07-21 14:19:00,77.8,68.9,29.97,South,189,2.0,3.0,74,0.00,,---,0.03,VWS V14.01,2013-07-21 18:19:00,
2013-07-21 14:24:00,77.7,66.7,29.97,South,188,0.0,3.0,69,0.00,,---,0.03,VWS V14.01,2013-07-21 18:24:00,
2013-07-21 14:29:00,78.1,68.3,29.97,South,189,1.0,3.0,72,0.00,,---,0.03,VWS V14.01,2013-07-21 18:29:00,
2013-07-21 14:34:00,78.4,68.2,29.97,South,188,0.0,4.0,71,0.00,,---,0.03,VWS V14.01,2013-07-21 18:34:00,
2013-07-21 14:39:00,78.9,68.3,29.97,South,189,1.0,2.0,70,0.00,,---,0.03,VWS V14.01,2013-07-21 18:39:00,
2013-07-21 14:44:00,79.1,67.6,29.97,South,188,1.0,4.0,68,0.00,,---,0.03,VWS V14.01,2013-07-21 18:44:00,
2013-07-21 14:49:00,79.1,68.5,29.97,South,172,3.0,5.0,70,0.00,,---,0.03,VWS V14.01,2013-07-21 18:49:00,
2013-07-21 14:54:00,79.2,68.2,29.97,SSE,164,1.0,4.0,69,0.00,,---,0.03,VWS V14.01,2013-07-21 18:54:00,
2013-07-21 14:59:00,79.5,68.9,29.97,SSE,165,1.0,3.0,70,0.00,,---,0.03,VWS V14.01,2013-07-21 18:59:00,
2013-07-21 15:04:00,79.8,69.2,29.97,SSE,165,1.0,3.0,70,0.00,,---,0.03,VWS V14.01,2013-07-21 19:04:00,
2013-07-21 15:09:00,80.3,69.2,29.97,SSE,165,0.0,2.0,69,0.00,,---,0.03,VWS V14.01,2013-07-21 19:09:00,
2013-07-21 15:14:00,80.4,68.9,29.97,South,173,1.0,5.0,68,0.00,,---,0.03,VWS V14.01,2013-07-21 19:14:00,
2013-07-21 15:19:00,79.8,68.3,29.97,South,173,0.0,2.0,68,0.00,,---,0.03,VWS V14.01,2013-07-21 19:19:00,
2013-07-21 15:24:00,79.4,67.9,29.97,South,174,2.0,3.0,68,0.00,,---,0.03,VWS V14.01,2013-07-21 19:24:00,
2013-07-21 15:29:00,78.9,67.4,29.97,South,173,3.0,6.0,68,0.00,,---,0.03,VWS V14.01,2013-07-21 19:29:00,
2013-07-21 15:34:00,78.5,66.6,29.97,South,174,1.0,5.0,67,0.00,,---,0.03,VWS V14.01,2013-07-21 19:34:00,
2013-07-21 15:39:00,78.3,67.3,29.97,South,174,2.0,3.0,69,0.00,,---,0.03,VWS V14.01,2013-07-21 19:39:00,
2013-07-21 15:44:00,78.2,67.6,29.97,South,173,0.0,3.0,70,0.00,,---,0.03,VWS V14.01,2013-07-21 19:44:00,
2013-07-21 15:49:00,78.1,66.3,29.97,South,174,1.0,4.0,67,0.00,,---,0.03,VWS V14.01,2013-07-21 19:49:00,
2013-07-21 15:54:00,78.5,67.1,29.97,South,173,0.0,4.0,68,0.00,,---,0.03,VWS V14.01,2013-07-21 19:54:00,
2013-07-21 15:59:00,79.0,67.6,29.97,South,176,1.0,4.0,68,0.00,,---,0.03,VWS V14.01,2013-07-21 19:59:00,
2013-07-21 16:04:00,79.5,66.3,29.97,South,179,2.0,5.0,64,0.00,,---,0.03,VWS V14.01,2013-07-21 20:04:00,
2013-07-21 16:09:00,79.2,66.0,29.97,South,179,0.0,5.0,64,0.00,,---,0.03,VWS V14.01,2013-07-21 20:09:00,
2013-07-21 16:14:00,78.9,65.7,29.97,South,181,1.0,5.0,64,0.00,,---,0.03,VWS V14.01,2013-07-21 20:14:00,
2013-07-21 16:19:00,78.9,67.0,29.97,South,183,2.0,6.0,67,0.00,,---,0.03,VWS V14.01,2013-07-21 20:19:00,
2013-07-21 16:24:00,79.1,67.6,29.97,South,185,3.0,5.0,68,0.00,,---,0.03,VWS V14.01,2013-07-21 20:24:00,
2013-07-21 16:29:00,79.1,67.6,29.97,South,177,4.0,5.0,68,0.00,,---,0.03,VWS V14.01,2013-07-21 20:29:00,
2013-07-21 16:34:00,79.2,70.2,29.97,SW,218,4.0,11.0,74,0.00,,---,0.03,VWS V14.01,2013-07-21 20:34:00,
2013-07-21 16:39:00,78.9,70.7,29.97,SSW,196,1.0,10.0,76,0.00,,---,0.03,VWS V14.01,2013-07-21 20:39:00,
2013-07-21 16:44:00,78.5,69.5,29.96,South,187,2.0,4.0,74,0.00,,---,0.03,VWS V14.01,2013-07-21 20:44:00,
2013-07-21 16:49:00,78.0,69.4,29.96,South,188,2.0,6.0,75,0.00,,---,0.03,VWS V14.01,2013-07-21 20:49:00,
2013-07-21 16:54:00,77.6,69.4,29.96,South,191,0.0,9.0,76,0.00,,---,0.03,VWS V14.01,2013-07-21 20:54:00,
2013-07-21 16:59:00,77.7,69.9,29.96,SSW,203,4.0,7.0,77,0.00,,---,0.03,VWS V14.01,2013-07-21 20:59:00,
2013-07-21 17:04:00,77.7,70.3,29.96,SSW,197,2.0,9.0,78,0.00,,---,0.03,VWS V14.01,2013-07-21 21:04:00,
2013-07-21 17:09:00,77.7,69.5,29.96,SSW,193,5.0,6.0,76,0.00,,---,0.03,VWS V14.01,2013-07-21 21:09:00,
2013-07-21 17:14:00,77.5,68.6,29.96,SSW,201,2.0,6.0,74,0.00,,---,0.03,VWS V14.01,2013-07-21 21:14:00,
2013-07-21 17:19:00,77.3,68.8,29.96,SSW,195,4.0,7.0,75,0.00,,---,0.03,VWS V14.01,2013-07-21 21:19:00,
2013-07-21 17:24:00,77.2,68.3,29.97,South,191,1.0,4.0,74,0.00,,---,0.03,VWS V14.01,2013-07-21 21:24:00,
2013-07-21 17:29:00,77.0,68.1,29.97,South,191,2.0,5.0,74,0.00,,---,0.03,VWS V14.01,2013-07-21 21:29:00,
2013-07-21 17:34:00,77.0,67.7,29.96,SSW,196,1.0,6.0,73,0.00,,---,0.03,VWS V14.01,2013-07-21 21:34:00,
2013-07-21 17:39:00,76.9,67.2,29.96,SSW,197,0.0,6.0,72,0.00,,---,0.03,VWS V14.01,2013-07-21 21:39:00,
2013-07-21 17:44:00,76.9,67.6,29.96,SSW,192,3.0,5.0,73,0.00,,---,0.03,VWS V14.01,2013-07-21 21:44:00,
2013-07-21 17:49:00,76.9,67.6,29.96,SSW,195,2.0,6.0,73,0.00,,---,0.03,VWS V14.01,2013-07-21 21:49:00,
2013-07-21 17:54:00,76.9,68.4,29.96,SSW,195,1.0,2.0,75,0.00,,---,0.03,VWS V14.01,2013-07-21 21:54:00,
2013-07-21 17:59:00,77.0,68.5,29.95,SSW,197,2.0,7.0,75,0.00,,---,0.03,VWS V14.01,2013-07-21 21:59:00,
2013-07-21 18:04:00,77.0,68.9,29.95,SSW,197,1.0,5.0,76,0.00,,---,0.03,VWS V14.01,2013-07-21 22:04:00,
2013-07-21 18:09:00,77.0,69.2,29.95,SSW,196,1.0,2.0,77,0.00,,---,0.03,VWS V14.01,2013-07-21 22:09:00,
2013-07-21 18:14:00,77.1,69.0,29.95,SSW,197,0.0,2.0,76,0.00,,---,0.03,VWS V14.01,2013-07-21 22:14:00,
2013-07-21 18:19:00,77.0,68.9,29.95,SSW,197,1.0,4.0,76,0.00,,---,0.03,VWS V14.01,2013-07-21 22:19:00,
2013-07-21 18:24:00,76.8,69.1,29.95,South,183,0.0,5.0,77,0.00,,---,0.03,VWS V14.01,2013-07-21 22:24:00,
2013-07-21 18:29:00,76.7,69.3,29.95,South,183,0.0,4.0,78,0.00,,---,0.03,VWS V14.01,2013-07-21 22:29:00,
2013-07-21 18:34:00,76.8,69.4,29.95,South,183,1.0,3.0,78,0.00,,---,0.03,VWS V14.01,2013-07-21 22:34:00,
2013-07-21 18:39:00,76.6,69.2,29.96,South,187,2.0,5.0,78,0.00,,---,0.03,VWS V14.01,2013-07-21 22:39:00,
2013-07-21 18:44:00,76.3,68.9,29.96,South,187,0.0,4.0,78,0.00,,---,0.03,VWS V14.01,2013-07-21 22:44:00,
2013-07-21 18:49:00,76.2,69.2,29.96,South,186,0.0,3.0,79,0.00,,---,0.03,VWS V14.01,2013-07-21 22:49:00,
2013-07-21 18:54:00,75.9,68.9,29.96,South,185,0.0,4.0,79,0.00,,---,0.03,VWS V14.01,2013-07-21 22:54:00,
2013-07-21 18:59:00,75.6,69.0,29.97,SSW,198,1.0,9.0,80,0.00,,---,0.03,VWS V14.01,2013-07-21 22:59:00,
2013-07-21 19:04:00,75.2,68.6,29.96,SSW,197,1.0,4.0,80,0.00,,---,0.03,VWS V14.01,2013-07-21 23:04:00,
2013-07-21 19:10:00,74.9,69.0,29.96,SSW,197,2.0,6.0,82,0.00,,---,0.03,VWS V14.01,2013-07-21 23:10:00,
2013-07-21 19:14:00,74.7,68.8,29.96,SSW,197,1.0,4.0,82,0.00,,---,0.03,VWS V14.01,2013-07-21 23:14:00,
2013-07-21 19:20:00,74.4,68.6,29.96,SSW,197,1.0,6.0,82,0.00,,---,0.03,VWS V14.01,2013-07-21 23:20:00,
2013-07-21 19:25:00,74.2,68.4,29.96,SSW,197,1.0,4.0,82,0.00,,---,0.03,VWS V14.01,2013-07-21 23:25:00,
2013-07-21 19:30:00,74.0,68.5,29.96,SSW,197,0.0,3.0,83,0.00,,---,0.03,VWS V14.01,2013-07-21 23:30:00,
2013-07-21 19:35:00,73.9,68.4,29.96,SSW,197,0.0,6.0,83,0.00,,---,0.03,VWS V14.01,2013-07-21 23:35:00,
2013-07-21 19:40:00,73.7,68.6,29.96,SSW,197,0.0,4.0,84,0.00,,---,0.03,VWS V14.01,2013-07-21 23:40:00,
2013-07-21 19:45:00,73.5,68.4,29.97,SSW,198,2.0,4.0,84,0.00,,---,0.03,VWS V14.01,2013-07-21 23:45:00,
2013-07-21 19:50:00,73.3,68.2,29.97,SSW,197,0.0,4.0,84,0.00,,---,0.03,VWS V14.01,2013-07-21 23:50:00,
2013-07-21 19:55:00,73.1,68.0,29.97,SSW,197,4.0,5.0,84,0.00,,---,0.03,VWS V14.01,2013-07-21 23:55:00,
2013-07-21 20:00:00,73.0,68.2,29.97,SSW,197,5.0,6.0,85,0.00,,---,0.03,VWS V14.01,2013-07-22 00:00:00,
2013-07-21 20:05:00,72.8,68.0,29.97,SSW,197,2.0,5.0,85,0.00,,---,0.03,VWS V14.01,2013-07-22 00:05:00,
2013-07-21 20:10:00,72.8,68.0,29.97,SSW,197,0.0,3.0,85,0.00,,---,0.03,VWS V14.01,2013-07-22 00:10:00,
2013-07-21 20:15:00,72.6,68.2,29.97,SSW,197,0.0,4.0,86,0.00,,---,0.03,VWS V14.01,2013-07-22 00:15:00,
2013-07-21 20:20:00,72.4,68.3,29.97,SSW,197,0.0,2.0,87,0.00,,---,0.03,VWS V14.01,2013-07-22 00:20:00,
2013-07-21 20:25:00,72.3,68.6,29.97,SSW,198,1.0,3.0,88,0.00,,---,0.03,VWS V14.01,2013-07-22 00:25:00,
2013-07-21 20:30:00,72.1,68.3,29.97,SSW,197,0.0,3.0,88,0.00,,---,0.03,VWS V14.01,2013-07-22 00:30:00,
2013-07-21 20:35:00,71.9,68.5,29.98,SSW,197,0.0,1.0,89,0.00,,---,0.03,VWS V14.01,2013-07-22 00:35:00,
2013-07-21 20:40:00,71.8,68.4,29.98,SSW,197,0.0,3.0,89,0.00,,---,0.03,VWS V14.01,2013-07-22 00:40:00,
2013-07-21 20:45:00,71.7,68.6,29.98,SSW,197,0.0,1.0,90,0.00,,---,0.03,VWS V14.01,2013-07-22 00:45:00,
2013-07-21 20:50:00,71.7,68.6,29.99,SSW,197,0.0,1.0,90,0.00,,---,0.03,VWS V14.01,2013-07-22 00:50:00,
2013-07-21 20:55:00,71.7,68.6,29.99,SSW,197,0.0,1.0,90,0.00,,---,0.03,VWS V14.01,2013-07-22 00:55:00,
2013-07-21 21:00:00,71.6,68.5,29.99,SSW,197,0.0,1.0,90,0.00,,---,0.03,VWS V14.01,2013-07-22 01:00:00,
2013-07-21 21:05:00,71.6,68.5,29.99,SSW,197,0.0,2.0,90,0.00,,---,0.03,VWS V14.01,2013-07-22 01:05:00,
2013-07-21 21:10:00,71.5,68.4,29.99,SSW,197,2.0,2.0,90,0.00,,---,0.03,VWS V14.01,2013-07-22 01:10:00,
2013-07-21 21:15:00,71.3,68.5,29.99,SSW,197,0.0,2.0,91,0.00,,---,0.03,VWS V14.01,2013-07-22 01:15:00,
2013-07-21 21:20:00,71.2,68.4,30.00,SSW,197,0.0,2.0,91,0.00,,---,0.03,VWS V14.01,2013-07-22 01:20:00,
2013-07-21 21:25:00,71.0,68.2,30.00,SSW,197,0.0,1.0,91,0.00,,---,0.03,VWS V14.01,2013-07-22 01:25:00,
2013-07-21 21:30:00,70.8,68.1,30.00,SSW,197,0.0,2.0,91,0.00,,---,0.03,VWS V14.01,2013-07-22 01:30:00,
2013-07-21 21:35:00,70.6,67.8,30.00,SSW,197,0.0,2.0,91,0.00,,---,0.03,VWS V14.01,2013-07-22 01:35:00,
2013-07-21 21:40:00,70.5,67.8,30.01,SSW,198,0.0,2.0,91,0.00,,---,0.03,VWS V14.01,2013-07-22 01:40:00,
2013-07-21 21:45:00,70.4,67.7,30.01,SSW,197,1.0,4.0,91,0.00,,---,0.03,VWS V14.01,2013-07-22 01:45:00,
2013-07-21 21:50:00,70.4,67.7,30.01,SSW,197,0.0,2.0,91,0.00,,---,0.03,VWS V14.01,2013-07-22 01:50:00,
2013-07-21 21:55:00,70.3,67.6,30.01,SSW,197,0.0,2.0,91,0.00,,---,0.03,VWS V14.01,2013-07-22 01:55:00,
2013-07-21 22:00:00,70.3,67.6,30.01,SSW,197,2.0,2.0,91,0.00,,---,0.03,VWS V14.01,2013-07-22 02:00:00,
2013-07-21 22:05:00,70.2,67.8,30.01,SSW,197,0.0,2.0,92,0.00,,---,0.03,VWS V14.01,2013-07-22 02:05:00,
2013-07-21 22:10:00,70.1,67.7,30.01,SSW,197,1.0,2.0,92,0.00,,---,0.03,VWS V14.01,2013-07-22 02:10:00,
2013-07-21 22:15:00,70.1,67.7,30.01,SSW,197,0.0,2.0,92,0.00,,---,0.03,VWS V14.01,2013-07-22 02:15:00,
2013-07-21 22:20:00,70.1,68.0,30.00,SSW,197,0.0,3.0,93,0.00,,---,0.03,VWS V14.01,2013-07-22 02:20:00,
2013-07-21 22:25:00,70.0,67.9,30.01,SSW,197,0.0,2.0,93,0.00,,---,0.03,VWS V14.01,2013-07-22 02:25:00,
2013-07-21 22:30:00,70.0,67.9,30.01,SSW,197,0.0,1.0,93,0.00,,---,0.03,VWS V14.01,2013-07-22 02:30:00,
2013-07-21 22:35:00,69.9,68.1,30.01,SSW,197,0.0,1.0,94,0.00,,---,0.03,VWS V14.01,2013-07-22 02:35:00,
2013-07-21 22:40:00,69.8,68.0,30.01,SSW,197,0.0,0.0,94,0.00,,---,0.03,VWS V14.01,2013-07-22 02:40:00,
2013-07-21 22:45:00,69.7,67.9,30.01,SSW,197,0.0,0.0,94,0.00,,---,0.03,VWS V14.01,2013-07-22 02:45:00,
2013-07-21 22:50:00,69.6,67.8,30.01,SSW,197,0.0,1.0,94,0.00,,---,0.03,VWS V14.01,2013-07-22 02:50:00,
2013-07-21 22:55:00,69.5,67.7,30.01,SSW,197,0.0,0.0,94,0.00,,---,0.03,VWS V14.01,2013-07-22 02:55:00,
2013-07-21 23:00:00,69.4,67.9,30.01,SSW,197,0.0,0.0,95,0.00,,---,0.03,VWS V14.01,2013-07-22 03:00:00,
2013-07-21 23:05:00,69.3,67.8,30.01,SSW,197,1.0,1.0,95,0.00,,---,0.03,VWS V14.01,2013-07-22 03:05:00,
2013-07-21 23:10:00,69.3,67.8,30.01,SSW,197,1.0,1.0,95,0.00,,---,0.03,VWS V14.01,2013-07-22 03:10:00,
2013-07-21 23:15:00,69.2,67.7,30.01,SSW,197,1.0,1.0,95,0.00,,---,0.03,VWS V14.01,2013-07-22 03:15:00,
2013-07-21 23:20:00,69.2,67.7,30.01,SSW,197,0.0,0.0,95,0.00,,---,0.03,VWS V14.01,2013-07-22 03:20:00,
2013-07-21 23:25:00,69.1,67.6,30.01,SSW,197,0.0,0.0,95,0.00,,---,0.03,VWS V14.01,2013-07-22 03:25:00,
2013-07-21 23:30:00,69.1,67.6,30.01,SSW,197,0.0,0.0,95,0.00,,---,0.03,VWS V14.01,2013-07-22 03:30:00,
2013-07-21 23:35:00,69.1,67.6,30.01,SSW,197,0.0,1.0,95,0.00,,---,0.03,VWS V14.01,2013-07-22 03:35:00,
2013-07-21 23:40:00,69.0,67.5,30.01,SSW,197,1.0,1.0,95,0.00,,---,0.03,VWS V14.01,2013-07-22 03:40:00,
2013-07-21 23:45:00,69.0,67.5,30.01,SSW,197,0.0,2.0,95,0.00,,---,0.03,VWS V14.01,2013-07-22 03:45:00,
2013-07-21 23:50:00,69.0,67.5,30.01,SSW,197,1.0,1.0,95,0.00,,---,0.03,VWS V14.01,2013-07-22 03:50:00,
2013-07-21 23:55:00,69.0,67.5,30.01,SE,134,1.0,3.0,95,0.00,,---,0.03,VWS V14.01,2013-07-22 03:55:00,